Weather History for Spokane, WA

Change the Weather History Date:

Saturday, January 19, 2013

  Actual Average Record
Temperature  
Mean Temperature 21 °F 30 °F  
Max Temperature 30 °F 35 °F 51 °F (1944)
Min Temperature 11 °F 25 °F -25 °F (1883)
Degree Days  
Heating Degree Days 44 35  
Month to date heating degree days 796 689  
Since 1 July heating degree days 3221 3523  
Cooling Degree Days 0 0  
Month to date cooling degree days 0 0  
Year to date cooling degree days 0 0  
Moisture  
Dew Point 16 °F    
Average Humidity 85    
Maximum Humidity 92    
Minimum Humidity 78    
Precipitation  
Precipitation 0.00 in 0.06 in 0.77 in (1950)
Month to date precipitation 1.05 1.18  
Year to date precipitation 1.05 1.18  
Snow  
Snow 0.00 in 0.40 in 6.00 in (2012)
Month to date snowfall 11.8 8.1  
Since 1 July snowfall 35.8 30.2  
Snow Depth 1.00 in    
Sea Level Pressure  
Sea Level Pressure 30.44 in    
Wind  
Wind Speed 1 mph (NE)    
Max Wind Speed 7 mph    
Max Gust Speed 8 mph    
Visibility 6 miles    
Events Fog    
T = Trace of Precipitation, MM = Missing Value Source: NWS Daily Summary

Daily Weather History Graph

Daily Weather History Graph

Search for Another Location

Airport:

Trip Planner

Search our weather history database for the weather conditions in past years. The results will help you decide how hot, cold, wet, or windy it might be!

Date:

Astronomy

Jan. 19, 2013 Rise Set
Actual Time 7:30 AM PST 4:32 PM PST
Civil Twilight 6:56 AM PST 5:06 PM PST
Nautical Twilight 6:18 AM PST 5:44 PM PST
Astronomical Twilight 5:41 AM PST 6:21 PM PST
Moon 11:05 AM PST 1:03 AM PST
Length of Visible Light 10h 10m
Length of Day
9h 01m
First Quarter, 58% of the Moon is Illuminated
Jan 19
First Quarter
Jan 26
Full
Feb 3
Last Quarter
Feb 9
New
Feb 17
First Quarter

Hourly Weather History & Observations

Time (PST) Temp. Windchill Dew Point Humidity Pressure Visibility Wind Dir Wind Speed Gust Speed Precip Events Conditions
12:53 AM 12.9 °F - 10.9 °F 92% 30.40 in 0.5 mi Calm Calm - N/A Fog Light Freezing Fog
1:53 AM 15.1 °F - 12.0 °F 88% 30.41 in 0.1 mi Calm Calm - N/A Fog Light Freezing Fog
2:53 AM 10.9 °F - 9.0 °F 92% 30.42 in 0.1 mi Calm Calm - N/A Fog Light Freezing Fog
3:34 AM 12.2 °F 6.1 °F 8.6 °F 85% 30.31 in 0.5 mi ENE 3.5 mph - N/A Fog Light Freezing Fog
3:53 AM 12.9 °F - 10.0 °F 88% 30.43 in 0.2 mi Calm Calm - N/A Fog Light Freezing Fog
4:22 AM 12.2 °F - 8.6 °F 85% 30.31 in 1.0 mi Calm Calm - N/A   Partly Cloudy
4:53 AM 12.0 °F - 8.1 °F 84% 30.44 in 1.5 mi Calm Calm - N/A   Mostly Cloudy
5:17 AM 12.2 °F - 8.6 °F 85% 30.32 in 3.0 mi Calm Calm - N/A   Overcast
5:53 AM 16.0 °F 10.4 °F 12.9 °F 88% 30.44 in 5.0 mi ENE 3.5 mph - N/A   Overcast
6:53 AM 16.0 °F 10.4 °F 12.9 °F 88% 30.45 in 6.0 mi ENE 3.5 mph - N/A   Mostly Cloudy
7:53 AM 17.1 °F - 14.0 °F 88% 30.46 in 7.0 mi Calm Calm - N/A Fog Mostly Cloudy
8:53 AM 18.0 °F - 14.0 °F 84% 30.49 in 7.0 mi Calm Calm - N/A Fog Mostly Cloudy
9:53 AM 19.9 °F - 18.0 °F 92% 30.50 in 7.0 mi Calm Calm - N/A Fog Mostly Cloudy
10:53 AM 24.1 °F 19.7 °F 19.9 °F 84% 30.48 in 8.0 mi NE 3.5 mph - N/A Fog Mostly Cloudy
11:53 AM 23.0 °F 18.4 °F 19.0 °F 85% 30.48 in 7.0 mi NE 3.5 mph - N/A   Mostly Cloudy
12:53 PM 27.0 °F - 23.0 °F 85% 30.45 in 10.0 mi Calm Calm - N/A   Mostly Cloudy
1:53 PM 28.9 °F - 24.1 °F 82% 30.43 in 10.0 mi Calm Calm - N/A   Mostly Cloudy
2:53 PM 30.0 °F - 24.1 °F 79% 30.44 in 10.0 mi Calm Calm - N/A   Mostly Cloudy
3:53 PM 28.9 °F - 23.0 °F 78% 30.44 in 10.0 mi Calm Calm - N/A   Mostly Cloudy
4:53 PM 25.0 °F - 21.0 °F 85% 30.45 in 10.0 mi Calm Calm - N/A   Mostly Cloudy
5:53 PM 23.0 °F 18.4 °F 19.9 °F 88% 30.45 in 10.0 mi SW 3.5 mph - N/A   Mostly Cloudy
6:53 PM 21.9 °F - 19.0 °F 89% 30.45 in 10.0 mi Calm Calm - N/A   Overcast
7:53 PM 24.1 °F - 21.0 °F 88% 30.46 in 10.0 mi Calm Calm - N/A   Overcast
8:53 PM 21.9 °F - 19.0 °F 89% 30.48 in 10.0 mi Calm Calm - N/A   Overcast
9:53 PM 23.0 °F 18.4 °F 19.9 °F 88% 30.49 in 10.0 mi North 3.5 mph - N/A   Overcast
10:53 PM 19.9 °F 14.9 °F 17.1 °F 89% 30.48 in 10.0 mi SW 3.5 mph - N/A   Mostly Cloudy
11:01 PM 21.2 °F - 17.6 °F 86% 30.38 in 6.0 mi Calm Calm - N/A   Mostly Cloudy
11:53 PM 21.0 °F - 18.0 °F 88% 30.49 in 6.0 mi Calm Calm - N/A   Mostly Cloudy